Overview Statistics Trail Chart Weather Telemetry Raw packets
 

This is the latest recevied weather packets stored in our database for station/object 4S6DRJ-13. If no packets are shown the sender has not sent any weather packets the latest 10 day(s).

<< 90 91 92 93 94 95 96 >>
Time Temp. Humidity Pressure Rain* Wind** Luminosity Snow
1788318961 29.44° C 78% 1010.6 hPa 0 mm 1.34 m/s, 214° 778 W/m² -
1788318900 29.44° C 78% 1010.5 hPa 0 mm 0.89 m/s, 219° 768 W/m² -
1788318839 29.44° C 78% 1010.3 hPa 0 mm 0.89 m/s, 281° 300 W/m² -
1788318779 29.44° C 77% 1010.5 hPa 0 mm 1.79 m/s, 275° 201 W/m² -
1788318717 29.44° C 78% 1010.3 hPa 0 mm 2.68 m/s, 308° 171 W/m² -
1788318656 29.44° C 78% 1010.4 hPa 0 mm 3.13 m/s, 216° 277 W/m² -
1788318595 29.44° C 78% 1010.5 hPa 0 mm 2.68 m/s, 240° 284 W/m² -
1788318534 29.44° C 78% 1010.4 hPa 0 mm 1.34 m/s, 264° 786 W/m² -
1788318473 29.44° C 78% 1010.3 hPa 0 mm 0.45 m/s, 148° 419 W/m² -
1788318412 29.44° C 78% 1010.5 hPa 0 mm 1.79 m/s, 267° 754 W/m² -
1788318351 29.44° C 78% 1010.5 hPa 0 mm 1.79 m/s, 264° 737 W/m² -
1788318290 29.44° C 79% 1010.5 hPa 0 mm 0.89 m/s, 247° 750 W/m² -
1788318229 29.44° C 79% 1010.4 hPa 0 mm 0.89 m/s, 71° 183 W/m² -
1788318168 29.44° C 79% 1010.4 hPa 0 mm 1.79 m/s, 308° 150 W/m² -
1788318107 29.44° C 79% 1010.3 hPa 0 mm 1.79 m/s, 193° 176 W/m² -
1788318046 29.44° C 79% 1010.4 hPa 0 mm 0.89 m/s, 324° 693 W/m² -
1788317985 29.44° C 79% 1010.5 hPa 0 mm 2.24 m/s, 243° 622 W/m² -
1788317924 29.44° C 79% 1010.5 hPa 0 mm 1.79 m/s, 325° 479 W/m² -
1788317742 28.89° C 79% 1010.2 hPa 0 mm 1.79 m/s, 210° 641 W/m² -
1788317681 28.89° C 79% 1010.5 hPa 0 mm 2.24 m/s, 298° 181 W/m² -
1788317620 28.89° C 79% 1010.5 hPa 0 mm 1.34 m/s, 233° 611 W/m² -
1788317558 28.89° C 79% 1010.4 hPa 0 mm 2.68 m/s, 283° 609 W/m² -
1788317498 28.89° C 79% 1010.4 hPa 0 mm 2.24 m/s, 291° 203 W/m² -
1788317436 28.89° C 79% 1010.3 hPa 0 mm 2.24 m/s, 215° 602 W/m² -
1788317376 28.89° C 80% 1010.3 hPa 0 mm 1.79 m/s, 232° 601 W/m² -

* Rain latest hour (hover to see other rain measurements)
** Current wind speed in m/s (hover to see current wind gust speed)